| time (UTC) | temp F | wind direction | speed knots | gust knots | rain 1hr in | rain 24hr in | rain mn in | humidity % | barometer mb |
| 20260503051537 | 56 | 0.0 | 4.3 | 0.00 | 0.00 | 0.00 | 60 | 1021.7 | |
| 20260503050537 | 56 | 315 | 8.7 | 12.2 | 0.00 | 0.00 | 0.00 | 59 | 1021.2 |
| 20260503045517 | 58 | 68 | 7.8 | 10.4 | 0.00 | 0.00 | 0.00 | 54 | 1021.2 |
| 20260503044517 | 58 | 113 | 4.3 | 7.0 | 0.00 | 0.00 | 0.00 | 54 | 1021.5 |
| 20260503043517 | 58 | 135 | 8.7 | 11.3 | 0.00 | 0.00 | 0.00 | 53 | 1021.4 |
| 20260503042517 | 57 | 135 | 8.7 | 10.4 | 0.00 | 0.00 | 0.00 | 55 | 1021.3 |
| 20260503041537 | 57 | 158 | 6.1 | 8.7 | 0.00 | 0.00 | 0.00 | 58 | 1020.9 |
| 20260503040516 | 58 | 113 | 5.2 | 7.0 | 0.00 | 0.00 | 0.00 | 53 | 1020.9 |
| 20260503035516 | 58 | 158 | 4.3 | 7.0 | 0.00 | 0.00 | 0.00 | 52 | 1020.9 |
| 20260503034517 | 59 | 68 | 0.9 | 4.3 | 0.00 | 0.00 | 0.00 | 46 | 1020.5 |
| 20260503033516 | 58 | 23 | 3.5 | 4.3 | 0.00 | 0.00 | 0.00 | 50 | 1019.9 |
| 20260503032517 | 58 | 338 | 3.5 | 6.1 | 0.00 | 0.00 | 0.00 | 51 | 1019.5 |
| 20260503031516 | 60 | 23 | 2.6 | 6.1 | 0.00 | 0.00 | 0.00 | 46 | 1019.2 |
| 20260503030517 | 60 | 23 | 4.3 | 8.7 | 0.00 | 0.00 | 0.00 | 46 | 1018.8 |
| 20260503025537 | 59 | 45 | 7.8 | 12.2 | 0.00 | 0.00 | 0.00 | 47 | 1018.4 |
| 20260503024537 | 59 | 23 | 7.0 | 13.0 | 0.00 | 0.00 | 0.00 | 48 | 1018.1 |
| 20260503023517 | 59 | 45 | 7.0 | 11.3 | 0.00 | 0.00 | 0.00 | 49 | 1018.2 |
| 20260503022517 | 59 | 68 | 7.8 | 12.2 | 0.00 | 0.00 | 0.00 | 48 | 1018.0 |
| 20260503021516 | 59 | 45 | 6.1 | 10.4 | 0.00 | 0.00 | 0.00 | 49 | 1018.2 |
| 20260503020516 | 59 | 45 | 6.1 | 8.7 | 0.00 | 0.00 | 0.00 | 52 | 1018.2 |
| 20260503015536 | 58 | 0 | 7.8 | 12.2 | 0.00 | 0.00 | 0.00 | 54 | 1018.2 |
| 20260503014516 | 58 | 338 | 9.6 | 13.9 | 0.00 | 0.00 | 0.00 | 55 | 1018.3 |
| 20260503013537 | 59 | 338 | 7.8 | 9.6 | 0.00 | 0.00 | 0.00 | 50 | 1018.4 |
| 20260503012537 | 59 | 315 | 1.7 | 7.8 | 0.00 | 0.00 | 0.00 | 50 | 1019.1 |
| 20260503011517 | 60 | 293 | 5.2 | 9.6 | 0.00 | 0.00 | 0.00 | 46 | 1019.1 |
| 20260503010517 | 60 | 0.0 | 0.0 | 0.00 | 0.00 | 0.00 | 46 | 1018.4 | |
| 20260503005516 | 61 | 293 | 3.5 | 7.0 | 0.00 | 0.00 | 0.00 | 44 | 1018.2 |
| 20260503004517 | 62 | 113 | 1.7 | 5.2 | 0.00 | 0.00 | 0.00 | 44 | 1018.4 |
| 20260503003516 | 62 | 135 | 1.7 | 5.2 | 0.00 | 0.00 | 0.00 | 47 | 1018.7 |
| 20260503002516 | 64 | 135 | 13.0 | 18.2 | 0.00 | 0.00 | 0.00 | 37 | 1019.1 |
| 20260503001517 | 65 | 113 | 10.4 | 21.7 | 0.00 | 0.00 | 0.00 | 33 | 1018.7 |
| 20260503000516 | 65 | 315 | 11.3 | 15.6 | 0.00 | 0.00 | 0.00 | 34 | 1018.1 |
| 20260502235517 | 65 | 315 | 13.9 | 19.1 | 0.00 | 0.00 | 0.00 | 35 | 1017.5 |
| 20260502234516 | 65 | 315 | 19.1 | 25.2 | 0.00 | 0.00 | 0.00 | 35 | 1017.7 |
| 20260502233517 | 65 | 315 | 16.5 | 21.7 | 0.00 | 0.00 | 0.00 | 34 | 1018.2 |
| 20260502232537 | 66 | 338 | 16.5 | 21.7 | 0.00 | 0.00 | 0.00 | 32 | 1018.3 |
| 20260502231516 | 68 | 315 | 13.9 | 19.1 | 0.00 | 0.00 | 0.00 | 28 | 1018.3 |
| 20260502230516 | 69 | 315 | 10.4 | 13.9 | 0.00 | 0.00 | 0.00 | 25 | 1018.2 |
| 20260502225556 | 70 | 293 | 13.0 | 20.0 | 0.00 | 0.00 | 0.00 | 24 | 1018.8 |
| 20260502224516 | 72 | 203 | 7.0 | 13.9 | 0.00 | 0.00 | 0.00 | 20 | 1018.9 |
| 20260502223516 | 72 | 158 | 5.2 | 8.7 | 0.00 | 0.00 | 0.00 | 19 | 1018.9 |
| 20260502222516 | 72 | 180 | 5.2 | 9.6 | 0.00 | 0.00 | 0.00 | 20 | 1018.8 |
| 20260502221516 | 72 | 135 | 10.4 | 13.9 | 0.00 | 0.00 | 0.00 | 20 | 1018.9 |
| 20260502220516 | 71 | 158 | 12.2 | 26.1 | 0.00 | 0.00 | 0.00 | 20 | 1019.1 |
| 20260502215516 | 71 | 180 | 11.3 | 28.7 | 0.00 | 0.00 | 0.00 | 19 | 1019.4 |
| 20260502214516 | 71 | 158 | 11.3 | 20.0 | 0.00 | 0.00 | 0.00 | 20 | 1019.4 |
| 20260502213516 | 71 | 158 | 8.7 | 14.8 | 0.00 | 0.00 | 0.00 | 20 | 1019.7 |
| 20260502212516 | 71 | 180 | 7.0 | 22.6 | 0.00 | 0.00 | 0.00 | 20 | 1019.8 |
| 20260502211516 | 71 | 225 | 9.6 | 13.9 | 0.00 | 0.00 | 0.00 | 22 | 1020.1 |
| 20260502210536 | 71 | 203 | 6.1 | 8.7 | 0.00 | 0.00 | 0.00 | 22 | 1020.3 |
| 20260502205536 | 72 | 158 | 11.3 | 16.5 | 0.00 | 0.00 | 0.00 | 21 | 1020.3 |
| 20260502204516 | 72 | 158 | 10.4 | 18.2 | 0.00 | 0.00 | 0.00 | 21 | 1020.4 |
| 20260502203516 | 72 | 225 | 7.0 | 13.0 | 0.00 | 0.00 | 0.00 | 21 | 1020.2 |
| 20260502202516 | 72 | 158 | 6.1 | 14.8 | 0.00 | 0.00 | 0.00 | 21 | 1020.8 |
| 20260502201516 | 72 | 203 | 8.7 | 18.2 | 0.00 | 0.00 | 0.00 | 20 | 1020.8 |
| 20260502200516 | 73 | 180 | 11.3 | 15.6 | 0.00 | 0.00 | 0.00 | 19 | 1021.1 |
| 20260502195516 | 72 | 248 | 0.9 | 5.2 | 0.00 | 0.00 | 0.00 | 20 | 1020.5 |
| 20260502194516 | 72 | 270 | 4.3 | 7.8 | 0.00 | 0.00 | 0.00 | 19 | 1020.9 |
| 20260502193516 | 72 | 225 | 5.2 | 14.8 | 0.00 | 0.00 | 0.00 | 19 | 1020.9 |
| 20260502192516 | 73 | 203 | 7.8 | 12.2 | 0.00 | 0.00 | 0.00 | 19 | 1021.4 |
| 20260502191516 | 73 | 158 | 10.4 | 17.4 | 0.00 | 0.00 | 0.00 | 18 | 1021.4 |
| 20260502190516 | 73 | 158 | 9.6 | 14.8 | 0.00 | 0.00 | 0.00 | 18 | 1021.5 |
| 20260502185516 | 73 | 180 | 9.6 | 13.0 | 0.00 | 0.00 | 0.00 | 19 | 1021.9 |
| 20260502184556 | 72 | 158 | 11.3 | 17.4 | 0.00 | 0.00 | 0.00 | 19 | 1021.9 |
| 20260502183516 | 71 | 158 | 9.6 | 18.2 | 0.00 | 0.00 | 0.00 | 20 | 1022.1 |
| 20260502182516 | 71 | 158 | 8.7 | 13.9 | 0.00 | 0.00 | 0.00 | 20 | 1022.1 |
| 20260502181516 | 70 | 225 | 5.2 | 12.2 | 0.00 | 0.00 | 0.00 | 21 | 1021.9 |
| 20260502180516 | 69 | 135 | 4.3 | 8.7 | 0.00 | 0.00 | 0.00 | 21 | 1022.2 |
| 20260502170516 | 67 | 90 | 0.9 | 4.3 | 0.00 | 0.00 | 0.00 | 21 | 1022.2 |
| 20260502163516 | 63 | 0.0 | 0.0 | 0.00 | 0.00 | 0.00 | 24 | 1021.4 | |
| 20260502162516 | 63 | 0.0 | 0.0 | 0.00 | 0.00 | 0.00 | 22 | 1021.3 | |
| 20260502161515 | 62 | 0.0 | 0.0 | 0.00 | 0.00 | 0.00 | 24 | 1021.4 | |
| 20260502160516 | 61 | 0.0 | 0.9 | 0.00 | 0.00 | 0.00 | 26 | 1021.5 | |
| 20260502151516 | 53 | 0.0 | 0.0 | 0.00 | 0.00 | 0.00 | 29 | 1021.2 | |
| 20260502150516 | 52 | 0.0 | 0.0 | 0.00 | 0.00 | 0.00 | 30 | 1020.9 | |
| 20260502130516 | 45 | 0.0 | 0.0 | 0.00 | 0.00 | 0.00 | 33 | 1019.5 | |
| 20260502123535 | 50 | 135 | 0.9 | 2.6 | 0.00 | 0.00 | 0.00 | 26 | 1020.2 |
| 20260502122536 | 51 | 113 | 2.6 | 2.6 | 0.00 | 0.00 | 0.00 | 25 | 1020.4 |
| 20260502121515 | 50 | 113 | 2.6 | 3.5 | 0.00 | 0.00 | 0.00 | 27 | 1020.4 |
| 20260502120515 | 49 | 113 | 0.9 | 1.7 | 0.00 | 0.00 | 0.00 | 27 | 1020.2 |
| 20260502115515 | 48 | 0.0 | 0.0 | 0.00 | 0.00 | 0.00 | 27 | 1020.1 | |
| 20260502113515 | 51 | 0.0 | 0.0 | 0.00 | 0.00 | 0.00 | 24 | 1020.6 | |
| 20260502112515 | 51 | 113 | 1.7 | 3.5 | 0.00 | 0.00 | 0.00 | 25 | 1020.3 |
| 20260502111515 | 50 | 113 | 3.5 | 4.3 | 0.00 | 0.00 | 0.00 | 27 | 1020.2 |
| 20260502110516 | 50 | 0.0 | 2.6 | 0.00 | 0.00 | 0.00 | 25 | 1020.4 | |
| 20260502105516 | 52 | 0.0 | 0.0 | 0.00 | 0.00 | 0.00 | 23 | 1020.6 | |
| 20260502104515 | 53 | 0.0 | 0.0 | 0.00 | 0.00 | 0.00 | 22 | 1020.5 | |
| 20260502103515 | 54 | 0.0 | 0.0 | 0.00 | 0.00 | 0.00 | 22 | 1020.6 | |
| 20260502102535 | 53 | 0.0 | 0.0 | 0.00 | 0.00 | 0.00 | 22 | 1020.5 | |
| 20260502101515 | 51 | 0.0 | 0.0 | 0.00 | 0.00 | 0.00 | 23 | 1020.2 | |
| 20260502100515 | 51 | 0.0 | 0.0 | 0.00 | 0.00 | 0.00 | 24 | 1020.3 | |
| 20260502091515 | 54 | 0.0 | 0.0 | 0.00 | 0.00 | 0.00 | 20 | 1020.9 | |
| 20260502090535 | 55 | 0.0 | 0.0 | 0.00 | 0.00 | 0.00 | 20 | 1020.9 | |
| 20260502070517 | 58 | 0.0 | 0.0 | 0.00 | 0.00 | 0.00 | 17 | 1021.3 | |
| 20260502065517 | 59 | 0.0 | 0.0 | 0.00 | 0.00 | 0.00 | 17 | 1021.3 | |
| 20260502064515 | 62 | 0.0 | 0.0 | 0.00 | 0.00 | 0.00 | 15 | 1021.6 | |
| 20260502063517 | 61 | 0.0 | 0.0 | 0.00 | 0.00 | 0.00 | 15 | 1021.5 | |
| 20260502062517 | 61 | 0.0 | 0.0 | 0.00 | 0.00 | 0.00 | 16 | 1021.3 | |
| 20260502061517 | 61 | 0.0 | 0.0 | 0.00 | 0.00 | 0.00 | 15 | 1021.6 | |
| 20260502060517 | 63 | 0.0 | 0.0 | 0.00 | 0.00 | 0.00 | 15 | 1021.7 | |
| 20260502055557 | 63 | 0.0 | 0.0 | 0.00 | 0.00 | 0.00 | 14 | 1021.7 | |
| 20260502054517 | 63 | 0.0 | 0.0 | 0.00 | 0.00 | 0.00 | 15 | 1021.7 | |
| 20260502053517 | 61 | 0.0 | 0.0 | 0.00 | 0.00 | 0.00 | 16 | 1021.5 | |
| 20260502052557 | 62 | 0.0 | 0.0 | 0.00 | 0.00 | 0.00 | 16 | 1021.5 |